Location: Fort Worth, Tx
(32.7431°N, 97.3695°W)
Time: 11:02:33
(UTC-04:00)

Explorer 11/Cluster Stage 4 - Pass Details

Date: 28 February 2024
Orbit: 465 x 1219 km, 28.8° (Epoch: 24 April)

Event Time Altitude Azimuth Distance (km) Brightness Sun altitude
Exits shadow 05:49:32 38° 190° (S) 1,525 7.8 -27.9°
Drops below altitude 10° 05:54:47 10° 136° (SE) 2,597 9.6 -26.9°
Sets 05:57:19 0° 128° (SE) 3,416 10.5 -26.3°
